This demonstration page uses our WeatherBlox Daily Observations layout. Learn more.

Left ArrowRight Arrow

33.98154, -81.23621

Hourly Observations for August 17, 2022

Temp ( °F °C ) Dew Point ( °F °C ) Humidity (%) Winds ( mph kmh ) Pressure ( in mb ) Visibility ( mi km ) Precip ( " mm )
12:56 am 00:56 Cloudy 72 22.2 68 20 87 87 N 5 7 29.93 1013 10 16 0.00 0.00
1:56 am 01:56 Cloudy 72 22.2 68 20 87 87 NW 5 7 29.91 1013 10 16 0.00 0.00
2:33 am 02:33 Cloudy 72 22.2 68 20 87 87 NNW 3 6 29.91 1013 10 16 0.00 0.00
2:56 am 02:56 Cloudy 72 22.2 68 20 87 87 N 3 6 29.91 1013 10 16 0.00 0.00
3:11 am 03:11 Cloudy 72 22.2 68 20 87 87 NNW 3 6 29.91 1013 10 16 0.00 0.00
3:56 am 03:56 Cloudy 72 22.2 68 20 87 87 N 5 7 29.91 1013 10 16 0.00 0.00
4:56 am 04:56 Cloudy 72 22.2 68 20 87 87 N 5 7 29.90 1013 10 16 0.00 0.00
5:22 am 05:22 Cloudy 72 22.2 68 20 87 87 Calm 29.91 1013 10 16 0.00 0.00
5:56 am 05:56 Cloudy 72 22.2 68 20 87 87 N 6 9 29.91 1013 10 16 0.00 0.00
6:17 am 06:17 Cloudy 72 22.2 68 20 87 87 N 5 7 29.91 1013 10 16 0.00 0.00
6:56 am 06:56 Cloudy 71 21.7 67 19.4 87 87 N 7 11 29.92 1013 10 16 0.00 0.00
7:56 am 07:56 Cloudy 71 21.7 68 20 90 90 NNE 5 7 29.95 1014 10 16 0.00 0.00
8:34 am 08:34 Cloudy 72 22.2 68 20 87 87 NNE 5 7 29.97 1015 10 16 0.00 0.00
8:56 am 08:56 Cloudy 72 22.2 68 20 87 87 N 5 7 29.97 1015 10 16 0.01 0.13
9:37 am 09:37 Cloudy with Light Rain 72 22.2 68 20 87 87 NNE 3 6 29.98 1015 6 10 0.01 0.13
9:58 am 09:58 Cloudy with Light Rain 72 22.2 69 20.6 91 91 ENE 5 7 29.98 1015 5 8 0.01 0.13
10:56 am 10:56 Cloudy 71 21.7 68 20 90 90 NNE 7 11 29.99 1016 8 13 0.01 0.25
11:52 am 11:52 Cloudy 72 22 66 19 83 83 NNE 6 9 29.99 1016 10 16 0.00 0.00
11:56 am 11:56 Cloudy 71 21.7 67 19.4 87 87 NNE 7 11 29.99 1016 10 16 0.00 0.00
12:39 pm 12:39 Cloudy 72 22.2 67 19.4 84 84 NE 8 13 29.98 1015 10 16 0.00 0.00
12:56 pm 12:56 Cloudy 73 22.8 67 19.4 81 81 ENE 8 13 29.99 1016 10 16 0.00 0.00
1:56 pm 13:56 Cloudy 73 22.8 67 19.4 81 81 NNE 8 13 29.98 1015 10 16 0.00 0.00
2:24 pm 14:24 Cloudy 72 22.2 68 20 87 87 NNE 6 9 29.99 1016 10 16 0.00 0.00
2:46 pm 14:46 Cloudy with Light Rain 72 22.2 69 20.6 91 91 NNW 5 7 29.99 1016 4 6 0.01 0.13
2:56 pm 14:56 Cloudy with Light Rain 72 22.2 70 21.1 93 93 NNW 5 7 29.99 1016 4 6 0.01 0.13
3:15 pm 15:15 Cloudy with Light Rain 71 21.7 70 21.1 96 96 NNW 3 6 29.99 1016 3 4 0.01 0.25
3:25 pm 15:25 Cloudy with Light Rain 71 21.7 69 20.6 93 93 Calm 29.99 1015 4 6 0.01 0.25
3:56 pm 15:56 Cloudy with Mist and Fog 72 22.2 69 20.6 91 91 VRB 3 6 29.98 1015 6 10 0.01 0.25
4:56 pm 16:56 Mostly Cloudy 73 22.8 69 20.6 87 87 NNE 6 9 29.96 1015 10 16 0.01 0.13
5:56 pm 17:56 Mostly Cloudy 75 23.9 69 20.6 82 82 NNE 3 6 29.95 1014 10 16 0.00 0.00
6:56 pm 18:56 Mostly Cloudy 75 23.9 68 20 79 79 E 5 7 29.95 1014 10 16 0.00 0.00
7:56 pm 19:56 Mostly Sunny 74 23.3 69 20.6 85 85 SE 5 7 29.93 1014 10 16 0.00 0.00
8:56 pm 20:56 Mostly Cloudy 73 22.8 68 20 84 84 N 3 6 29.94 1014 10 16 0.00 0.00
9:56 pm 21:56 Mostly Cloudy 72 22.2 69 20.6 91 91 NW 3 6 29.97 1015 10 16 0.00 0.00
10:56 pm 22:56 Mostly Cloudy 72 22.2 69 20.6 91 91 NNE 3 6 29.97 1015 10 16 0.00 0.00
11:56 pm 23:56 Mostly Cloudy 72 22.2 69 20.6 91 91 Calm 29.96 1015 10 16 0.00 0.00

Powered by AerisWeather